Startpagina
METAR-TAF:

METAR-TAF

Vliegvelden :

Steamboat Springs, Colorado, Verenigde Staten

breedte: 40-30-58N, lengte: 106-51-59W, hoogte: 2098 m

Actueel weer

Dit bericht is 32 minuten geleden gemaakt, om 16:35 UTC
Wind 11 kt uit het westnoordwesten
Temperatuur 6°C
Vochtigheid 56%
Druk 1026 hPa
Zicht: 16.1 km
Verspreide wolken op 4000 ft

METAR: KSBS 181635Z AUTO 29011KT 10SM SCT040 06/M02 A3031 RMK AO1 T00591021

Tijdstip: 11:07 (17:07 UTC)


TAF: ontbreekt

Waarnemingen en weersverwachtingen van meer dan 4000 vliegvelden (METAR en TAF).

De beschikbare stations zijn de gele en rode punten op de kaart.

Ga met uw muis naar het station om de naam te zien.

Klik dan om waarnemingen en weersverwachtingen te zien.

kaart wijzigen: klik op de groene knoppen met een zwart kruis om in te zoomen, op de groene knop met een streepje om uit te zoomen of op de groene pijlen voor aangrenzende kaarten.


METAR-TAF: